OPS 4682 DEB, 14049

Orbit data source: Space-Track

OPS 4682 DEB, 14049 is space debris in LEO originally from a launch on Sat, 03 Apr 1965 UTC launched from the Air Force Western Test Range (AFWTR). Debris objects in space refer to the collection of defunct objects orbiting the Earth. Examples of debris include non-operational satellites, rocket bodies, and fragments generated from explosions, collisions, or faulty payload assembly.

Loading next visibility...
Identifier
14049, 1965-027L
Orbit
LEO
Country
Flag of USUS
Related business
Manufacturer
Unknown
Mission
Spacecraft
Bus & Motor
Unknown
Mass
Unknown
Launch date (UTC)
1965-04-03 (61 years ago)
Launch vehicle
Unknown
Launch site
Air Force Western Test Range (AFWTR)
Object type
Payload
Rocket body
Debris
Shape & HBR
Unknown shape, 0.1 m
Radar Cross Section
Medium (>0.1 m² and <1 m²)

Expand to show TLE details & history
Last TLE update: 2 days ago

TLE from 2 days ago
0 OPS 4682 DEB
1 14049U 65027L   26173.28131286  .00000165  00000-0  56332-3 0  9992
2 14049  90.2439   8.5689 0040607 170.4686   9.7374 12.94601707 58888
Epoch: 2026-06-22T06:45Z
TLE epoch observation values (Epoch: 2026-06-22T06:45:05.431Z)
Latitude
-0.39952°
Longitude
176.8251°
Altitude
1,255.575 km
Speed
7.242 km/s
True Right ascension
12h 34m 16s
True Declination
0° 23' 50"
Sunlit
Object was in daylight at epoch
Visualization orbit readout
Latitude
Unknown
Longitude
Unknown
Altitude
Unknown
Speed
Unknown
Apparent Right ascension
Unknown
Apparent Declination
Unknown
Sunlit
N/A
Visualization observer readout
Local Sidereal Time
22:42:42
Azimuth
Unknown
Elevation
Unknown
Doppler factor
Unknown
Orbital elements
Apogee altitude
1,311.545 km
Perigee altitude
1,249.347 km
Semi-major axis
7,658.583 km
Eccentricity
0.00406
Inclination
90.2439°
RAAN
8.5689°
Arg. of periapsis
170.4686°
True anomaly
9.8165°
Mean anomaly
9.7374°
Eccentric anomaly
9.77691°
Mean motion
3.23833 °/min
Orbital period
111.17 mins
BSTAR
0.00056332
Loading maneuver chart data...
Computing Atmospheric mass density...
Loading historical data...
Loading historical data...
Loading historical data...
Loading historical data...
Loading historical data...
Loading historical data...
Loading historical data...

Documentation

Showing up to 5 results
|